Miscellaneous Local Product
Issued by NWS Hastings, NE

Home | Current Version | Previous Version | Graphics & Text | Print | Product List | Glossary On
Versions: 1 2 3 4 5 6 7 8 9 10 11 12 13 14 15 16 17 18 19 20 21 22 23 24 25 26 27 28 29 30 31 32 33 34 35 36 37 38 39 40 41 42 43 44 45 46 47 48 49 50
000
AXUS43 KGID 310002
MISGRI

GID CWA HOURLY WEATHER ROUNDUP
NATIONAL WEATHER SERVICE HASTINGS NE
700 PM CDT MON MAR 30 2015

NOTE: "FAIR" INDICATES FEW OR NO CLOUDS BELOW 12,000 FEET WITH NO
SIGNIFICANT WEATHER AND/OR OBSTRUCTIONS TO VISIBILITY.

...SOUTH CENTRAL NEBRASKA...

CITY           SKY/WX    TMP DP  RH WIND       PRES   REMARKS
GRAND ISLAND   MOCLDY    74  24  15 N9        29.93S
HASTINGS       PTCLDY    74  24  15 N13       29.93R
KEARNEY          N/A    N/A N/A N/A MISG        N/A
ORD            MOSUNNY   73  23  15 NW16      29.93S
YORK           MOCLDY    72  30  21 NW5       29.92S
AURORA         MOCLDY    73  23  15 NW9       29.92S
LEXINGTON      SUNNY     76  20  12 N9        29.95S
HOLDREGE       SUNNY     75  20  12 N7        29.94S
HEBRON         CLEAR     76  25  14 NW3       29.90S

...NEBRASKA PANHANDLE...

CITY           SKY/WX    TMP DP  RH WIND       PRES   REMARKS
CHADRON        SUNNY     69  27  20 NW15G23   30.00S
ALLIANCE       MOSUNNY   66  26  22 NW12      30.02F
SCOTTSBLUFF    SUNNY     70  24  17 N10G17    30.03F
SIDNEY         SUNNY     69  26  20 NE12      30.05S

...WESTERN AND NORTH CENTRAL NEBRASKA...

CITY           SKY/WX    TMP DP  RH WIND       PRES   REMARKS
VALENTINE      SUNNY     69  25  19 NW17G24   29.98S
AINSWORTH      SUNNY     69  26  20 NW20      29.98R
ONEILL         CLEAR     70  28  20 NW18      29.95R
BROKEN BOW     MOSUNNY   74  25  16 N15       29.96R
IMPERIAL         N/A     74  22  14 N16       30.00S
NORTH PLATTE   MOSUNNY   72  20  14 N10       29.98R
MCCOOK         SUNNY     78  16   9 NW14      29.95S

...EASTERN NEBRASKA...

CITY           SKY/WX    TMP DP  RH WIND       PRES   REMARKS
NORFOLK        CLEAR     73  29  19 NW18      29.89R
SO SIOUX CITY  PTCLDY    74  28  18 NW17      29.85R
TEKAMAH        CLEAR     77  26  15 NW18G29   29.85R
COLUMBUS       PTCLDY    73  25  16 NW16G22   29.91S
ALBION         CLEAR     73  25  17 NW15G23   29.92S
OMAHA EPPLEY   PTCLDY    75  31  19 W13       29.86S
MILLARD        PTCLDY    75  32  20 W7        29.87S
LINCOLN        MOCLDY    74  27  17 NW7       29.91R
NEBRASKA CITY  MOCLDY    70  31  23 W6        29.89S
BEATRICE       PTCLDY    75  35  22 W7        29.90S
FALLS CITY     PTCLDY    74  31  20 SW9       29.90F

...NORTHERN KANSAS...

CITY           SKY/WX    TMP DP  RH WIND       PRES   REMARKS
GOODLAND       SUNNY     75  17  11 N10       30.01R
HILL CITY      SUNNY     78  20  11 N17       29.94R
NORTON         CLEAR     75  10   8 N8        29.94R
PHILLIPSBURG   SUNNY     81  21  11 N13G21    29.92R
SMITH CENTER   SUNNY     75  27  16 N16       29.91R
BELOIT         CLEAR     70  21  16 NE5       29.88R
HAYS           SUNNY     81  25  12 N12       29.90S
RUSSELL        SUNNY     80  27  14 NW14      29.87R
CONCORDIA      CLEAR     77  35  21 S8        29.89F
SALINA         CLEAR     76  39  26 S13       29.91F
TOPEKA         CLEAR     74  30  19 SW12G20   29.95S



USA.gov is the U.S. government's official web portal to all federal, state and local government web resources and services.